Year,Month,Day,Hour,Minute,Value (Times are PST for temperature in C)
2009,07,30,00,00,23.70
2009,07,30,00,06,23.70
2009,07,30,00,07,23.70
2009,07,30,00,08,23.70
2009,07,30,00,09,23.70
2009,07,30,00,10,23.70
2009,07,30,00,11,23.60
2009,07,30,00,12,23.60
2009,07,30,00,13,23.60
2009,07,30,00,14,23.60
2009,07,30,00,15,23.60
2009,07,30,00,16,23.60
2009,07,30,00,17,23.50
2009,07,30,00,18,23.40
2009,07,30,00,19,23.40
2009,07,30,00,20,23.40
2009,07,30,00,21,23.40
2009,07,30,00,22,23.40
2009,07,30,00,23,23.40
2009,07,30,00,24,23.30
2009,07,30,00,25,23.30
2009,07,30,00,26,23.30
2009,07,30,00,27,23.30
2009,07,30,00,28,23.30
2009,07,30,00,29,23.30
2009,07,30,00,30,23.30
2009,07,30,00,31,23.20
2009,07,30,00,32,23.20
2009,07,30,00,33,23.20
2009,07,30,00,34,23.20
2009,07,30,00,35,23.10
2009,07,30,00,36,23.10
2009,07,30,00,37,23.10
2009,07,30,00,38,23.10
2009,07,30,00,39,23.00
2009,07,30,00,40,23.00
2009,07,30,00,41,22.90
2009,07,30,00,42,22.90
2009,07,30,00,43,22.90
2009,07,30,00,44,22.90
2009,07,30,00,45,23.00
2009,07,30,00,46,23.10
2009,07,30,00,47,23.10
2009,07,30,00,48,23.10
2009,07,30,00,49,23.10
2009,07,30,00,50,23.10
2009,07,30,00,51,23.10
2009,07,30,00,52,23.00
2009,07,30,00,53,22.90
2009,07,30,00,54,22.90
2009,07,30,00,55,22.90
2009,07,30,00,56,22.90
2009,07,30,00,57,22.90
2009,07,30,00,58,22.90
2009,07,30,00,59,22.90
2009,07,30,01,00,22.90
2009,07,30,01,01,22.90
2009,07,30,01,02,22.90
2009,07,30,01,03,22.90
2009,07,30,01,04,22.90
2009,07,30,01,05,22.80
2009,07,30,01,06,22.80
2009,07,30,01,07,22.80
2009,07,30,01,08,22.80
2009,07,30,01,09,22.80
2009,07,30,01,10,22.70
2009,07,30,01,11,22.70
2009,07,30,01,12,22.70
2009,07,30,01,13,22.70
2009,07,30,01,14,22.70
2009,07,30,01,15,22.60
2009,07,30,01,16,22.60
2009,07,30,01,17,22.60
2009,07,30,01,18,22.60
2009,07,30,01,19,22.60
2009,07,30,01,20,22.60
2009,07,30,01,21,22.50
2009,07,30,01,22,22.50
2009,07,30,01,23,22.50
2009,07,30,01,24,22.50
2009,07,30,01,25,22.50
2009,07,30,01,26,22.40
2009,07,30,01,27,22.40
2009,07,30,01,28,22.40
2009,07,30,01,29,22.40
2009,07,30,01,30,22.30
2009,07,30,01,31,22.30
2009,07,30,01,32,22.30
2009,07,30,01,33,22.30
2009,07,30,01,34,22.30
2009,07,30,01,35,22.20
2009,07,30,01,36,22.20
2009,07,30,01,37,22.20
2009,07,30,01,38,22.20
2009,07,30,01,39,22.10
2009,07,30,01,40,22.10
2009,07,30,01,41,22.10
2009,07,30,01,42,22.10
2009,07,30,01,43,22.00
2009,07,30,01,44,22.00
2009,07,30,01,45,22.00
2009,07,30,01,46,22.00
2009,07,30,01,47,21.90
2009,07,30,01,48,21.90
2009,07,30,01,49,21.90
2009,07,30,01,50,21.90
2009,07,30,01,51,21.90
2009,07,30,01,52,21.90
2009,07,30,01,53,21.90
2009,07,30,01,54,21.80
2009,07,30,01,55,21.80
2009,07,30,01,56,21.80
2009,07,30,01,57,21.80
2009,07,30,01,58,21.80
2009,07,30,01,59,21.70
2009,07,30,02,00,21.70
2009,07,30,02,01,21.70
2009,07,30,02,02,21.70
2009,07,30,02,03,21.70
2009,07,30,02,04,21.70
2009,07,30,02,05,21.60
2009,07,30,02,06,21.60
2009,07,30,02,07,21.60
2009,07,30,02,08,21.60
2009,07,30,02,09,21.60
2009,07,30,02,10,21.60
2009,07,30,02,11,21.60
2009,07,30,02,12,21.60
2009,07,30,02,13,21.60
2009,07,30,02,14,21.60
2009,07,30,02,15,21.60
2009,07,30,02,16,21.50
2009,07,30,02,17,21.40
2009,07,30,02,18,21.40
2009,07,30,02,19,21.40
2009,07,30,02,20,21.40
2009,07,30,02,21,21.40
2009,07,30,02,22,21.40
2009,07,30,02,23,21.30
2009,07,30,02,24,21.30
2009,07,30,02,25,21.30
2009,07,30,02,26,21.30
2009,07,30,02,27,21.30
2009,07,30,02,28,21.30
2009,07,30,02,29,21.30
2009,07,30,02,30,21.30
2009,07,30,02,31,21.30
2009,07,30,02,32,21.30
2009,07,30,02,33,21.30
2009,07,30,02,34,21.30
2009,07,30,02,35,21.30
2009,07,30,02,36,21.20
2009,07,30,02,37,21.20
2009,07,30,02,38,21.20
2009,07,30,02,39,21.20
2009,07,30,02,40,21.20
2009,07,30,02,41,21.20
2009,07,30,02,42,21.20
2009,07,30,02,43,21.20
2009,07,30,02,44,21.20
2009,07,30,02,45,21.20
2009,07,30,02,46,21.10
2009,07,30,02,47,21.10
2009,07,30,02,48,21.10
2009,07,30,02,49,21.10
2009,07,30,02,50,21.10
2009,07,30,02,51,21.10
2009,07,30,02,52,21.10
2009,07,30,02,53,21.10
2009,07,30,02,54,21.10
2009,07,30,02,55,21.10
2009,07,30,02,56,21.10
2009,07,30,02,57,21.10
2009,07,30,02,58,21.00
2009,07,30,02,59,21.00
2009,07,30,03,00,21.00
2009,07,30,03,01,21.00
2009,07,30,03,02,21.00
2009,07,30,03,03,21.00
2009,07,30,03,04,21.00
2009,07,30,03,05,20.90
2009,07,30,03,06,20.90
2009,07,30,03,07,20.90
2009,07,30,03,08,20.90
2009,07,30,03,09,20.90
2009,07,30,03,10,20.90
2009,07,30,03,11,20.90
2009,07,30,03,12,20.80
2009,07,30,03,13,20.80
2009,07,30,03,14,20.80
2009,07,30,03,15,20.80
2009,07,30,03,16,20.80
2009,07,30,03,17,20.70
2009,07,30,03,18,20.70
2009,07,30,03,19,20.70
2009,07,30,03,20,20.70
2009,07,30,03,21,20.70
2009,07,30,03,22,20.70
2009,07,30,03,23,20.70
2009,07,30,03,24,20.60
2009,07,30,03,25,20.60
2009,07,30,03,26,20.60
2009,07,30,03,27,20.60
2009,07,30,03,28,20.60
2009,07,30,03,29,20.50
2009,07,30,03,30,20.50
2009,07,30,03,31,20.50
2009,07,30,03,32,20.50
2009,07,30,03,33,20.40
2009,07,30,03,34,20.40
2009,07,30,03,35,20.40
2009,07,30,03,36,20.40
2009,07,30,03,37,20.30
2009,07,30,03,38,20.30
2009,07,30,03,39,20.30
2009,07,30,03,40,20.30
2009,07,30,03,41,20.30
2009,07,30,03,42,20.20
2009,07,30,03,43,20.20
2009,07,30,03,44,20.20
2009,07,30,03,45,20.20
2009,07,30,03,46,20.20
2009,07,30,03,47,20.20
2009,07,30,03,48,20.20
2009,07,30,03,49,20.20
2009,07,30,03,50,20.20
2009,07,30,03,51,20.20
2009,07,30,03,52,20.20
2009,07,30,03,53,20.20
2009,07,30,03,54,20.20
2009,07,30,03,55,20.20
2009,07,30,03,56,20.20
2009,07,30,03,57,20.10
2009,07,30,03,58,20.10
2009,07,30,03,59,20.10
2009,07,30,04,00,20.10
2009,07,30,04,01,20.10
2009,07,30,04,02,20.10
2009,07,30,04,03,20.10
2009,07,30,04,04,20.10
2009,07,30,04,05,20.10
2009,07,30,04,06,19.90
2009,07,30,04,07,19.90
2009,07,30,04,08,19.90
2009,07,30,04,09,19.90
2009,07,30,04,10,19.90
2009,07,30,04,11,19.90
2009,07,30,04,12,19.90
2009,07,30,04,13,19.90
2009,07,30,04,14,19.90
2009,07,30,04,15,19.90
2009,07,30,04,16,19.90
2009,07,30,04,17,19.90
2009,07,30,04,18,19.90
2009,07,30,04,19,19.90
2009,07,30,04,20,19.90
2009,07,30,04,21,19.90
2009,07,30,04,22,19.90
2009,07,30,04,23,19.90
2009,07,30,04,24,19.90
2009,07,30,04,25,19.90
2009,07,30,04,26,20.00
2009,07,30,04,27,20.10
2009,07,30,04,28,20.10
2009,07,30,04,29,20.10
2009,07,30,04,30,20.10
2009,07,30,04,31,20.10
2009,07,30,04,32,20.20
2009,07,30,04,33,20.20
2009,07,30,04,34,20.20
2009,07,30,04,35,20.20
2009,07,30,04,36,20.20
2009,07,30,04,37,20.20
2009,07,30,04,38,20.30
2009,07,30,04,39,20.30
2009,07,30,04,40,20.30
2009,07,30,04,41,20.30
2009,07,30,04,42,20.30
2009,07,30,04,43,20.30
2009,07,30,04,44,20.30
2009,07,30,04,45,20.30
2009,07,30,04,46,20.30
2009,07,30,04,47,20.30
2009,07,30,04,48,20.30
2009,07,30,04,49,20.30
2009,07,30,04,50,20.20
2009,07,30,04,51,20.20
2009,07,30,04,52,20.20
2009,07,30,04,53,20.20
2009,07,30,04,54,20.20
2009,07,30,04,55,20.20
2009,07,30,04,56,20.20
2009,07,30,04,57,20.20
2009,07,30,04,58,20.20
2009,07,30,04,59,20.20
2009,07,30,05,00,20.20
2009,07,30,05,01,20.20
2009,07,30,05,02,20.20
2009,07,30,05,03,20.20
2009,07,30,05,04,20.20
2009,07,30,05,05,20.20
2009,07,30,05,06,20.20
2009,07,30,05,07,20.20
2009,07,30,05,08,20.20
2009,07,30,05,09,20.20
2009,07,30,05,10,20.20
2009,07,30,05,11,20.20
2009,07,30,05,12,20.20
2009,07,30,05,13,20.20
2009,07,30,05,14,20.20
2009,07,30,05,15,20.10
2009,07,30,05,16,20.10
2009,07,30,05,17,20.10
2009,07,30,05,18,20.10
2009,07,30,05,19,20.10
2009,07,30,05,20,20.00
2009,07,30,05,21,19.90
2009,07,30,05,22,19.90
2009,07,30,05,23,19.90
2009,07,30,05,24,19.90
2009,07,30,05,25,19.90
2009,07,30,05,26,19.90
2009,07,30,05,27,19.90
2009,07,30,05,28,19.90
2009,07,30,05,29,19.90
2009,07,30,05,30,19.90
2009,07,30,05,31,19.90
2009,07,30,05,32,19.90
2009,07,30,05,33,19.80
2009,07,30,05,34,19.80
2009,07,30,05,35,19.80
2009,07,30,05,36,19.80
2009,07,30,05,37,19.80
2009,07,30,05,38,19.80
2009,07,30,05,39,19.80
2009,07,30,05,40,19.80
2009,07,30,05,41,19.80
2009,07,30,05,42,19.80
2009,07,30,05,43,19.70
2009,07,30,05,44,19.70
2009,07,30,05,45,19.70
2009,07,30,05,46,19.70
2009,07,30,05,47,19.70
2009,07,30,05,48,19.70
2009,07,30,05,49,19.70
2009,07,30,05,50,19.60
2009,07,30,05,51,19.60
2009,07,30,05,52,19.60
2009,07,30,05,53,19.60
2009,07,30,05,54,19.60
2009,07,30,05,55,19.60
2009,07,30,05,56,19.60
2009,07,30,05,57,19.60
2009,07,30,05,58,19.50
2009,07,30,05,59,19.50
2009,07,30,06,00,19.50
2009,07,30,06,01,19.50
2009,07,30,06,02,19.50
2009,07,30,06,03,19.50
2009,07,30,06,04,19.50
2009,07,30,06,05,19.50
2009,07,30,06,06,19.50
2009,07,30,06,07,19.50
2009,07,30,06,08,19.50
2009,07,30,06,09,19.50
2009,07,30,06,10,19.50
2009,07,30,06,11,19.50
2009,07,30,06,12,19.50
2009,07,30,06,13,19.50
2009,07,30,06,14,19.50
2009,07,30,06,15,19.50
2009,07,30,06,16,19.50
2009,07,30,06,17,19.50
2009,07,30,06,18,19.50
2009,07,30,06,19,19.50
2009,07,30,06,20,19.50
2009,07,30,06,21,19.50
2009,07,30,06,22,19.50
2009,07,30,06,23,19.50
2009,07,30,06,24,19.50
2009,07,30,06,25,19.50
2009,07,30,06,26,19.50
2009,07,30,06,27,19.50
2009,07,30,06,28,19.50
2009,07,30,06,29,19.50
2009,07,30,06,30,19.50
2009,07,30,06,31,19.50
2009,07,30,06,32,19.60
2009,07,30,06,33,19.60
2009,07,30,06,34,19.60
2009,07,30,06,35,19.60
2009,07,30,06,36,19.60
2009,07,30,06,37,19.60
2009,07,30,06,38,19.60
2009,07,30,06,39,19.70
2009,07,30,06,40,19.70
2009,07,30,06,41,19.70
2009,07,30,06,42,19.70
2009,07,30,06,43,19.70
2009,07,30,06,44,19.80
2009,07,30,06,45,19.80
2009,07,30,06,46,19.80
2009,07,30,06,47,19.80
2009,07,30,06,48,19.80
2009,07,30,06,49,19.80
2009,07,30,06,50,19.90
2009,07,30,06,51,19.90
2009,07,30,06,52,19.90
2009,07,30,06,53,19.90
2009,07,30,06,54,19.90
2009,07,30,06,55,19.90
2009,07,30,06,56,19.90
2009,07,30,06,57,19.90
2009,07,30,06,58,20.00
2009,07,30,06,59,20.10
2009,07,30,07,00,20.10
2009,07,30,07,01,20.10
2009,07,30,07,02,20.20
2009,07,30,07,03,20.20
2009,07,30,07,04,20.20
2009,07,30,07,05,20.20
2009,07,30,07,06,20.20
2009,07,30,07,07,20.20
2009,07,30,07,08,20.20
2009,07,30,07,09,20.20
2009,07,30,07,10,20.30
2009,07,30,07,11,20.30
2009,07,30,07,12,20.30
2009,07,30,07,13,20.30
2009,07,30,07,14,20.40
2009,07,30,07,15,20.40
2009,07,30,07,16,20.40
2009,07,30,07,17,20.50
2009,07,30,07,18,20.50
2009,07,30,07,19,20.50
2009,07,30,07,20,20.60
2009,07,30,07,21,20.60
2009,07,30,07,22,20.60
2009,07,30,07,23,20.70
2009,07,30,07,24,20.70
2009,07,30,07,25,20.80
2009,07,30,07,26,20.80
2009,07,30,07,27,20.90
2009,07,30,07,28,20.90
2009,07,30,07,29,21.00
2009,07,30,07,30,21.00
2009,07,30,07,31,21.00
2009,07,30,07,32,21.10
2009,07,30,07,33,21.10
2009,07,30,07,34,21.20
2009,07,30,07,35,21.20
2009,07,30,07,36,21.30
2009,07,30,07,37,21.30
2009,07,30,07,38,21.30
2009,07,30,07,39,21.30
2009,07,30,07,40,21.50
2009,07,30,07,41,21.60
2009,07,30,07,42,21.60
2009,07,30,07,43,21.60
2009,07,30,07,44,21.70
2009,07,30,07,45,21.70
2009,07,30,07,46,21.80
2009,07,30,07,47,21.90
2009,07,30,07,48,21.90
2009,07,30,07,49,22.00
2009,07,30,07,50,22.10
2009,07,30,07,51,22.10
2009,07,30,07,52,22.20
2009,07,30,07,53,22.20
2009,07,30,07,54,22.30
2009,07,30,07,55,22.30
2009,07,30,07,56,22.40
2009,07,30,07,57,22.50
2009,07,30,07,58,22.60
2009,07,30,07,59,22.70
2009,07,30,08,00,22.70
2009,07,30,08,01,22.80
2009,07,30,08,02,22.90
2009,07,30,08,03,22.90
2009,07,30,08,04,23.00
2009,07,30,08,05,23.10
2009,07,30,08,06,23.20
2009,07,30,08,07,23.30
2009,07,30,08,08,23.30
2009,07,30,08,09,23.40
2009,07,30,08,10,23.50
2009,07,30,08,11,23.60
2009,07,30,08,12,23.70
2009,07,30,08,13,23.70
2009,07,30,08,14,23.70
2009,07,30,08,15,23.80
2009,07,30,08,16,23.80
2009,07,30,08,17,23.90
2009,07,30,08,18,24.00
2009,07,30,08,19,24.10
2009,07,30,08,20,24.10
2009,07,30,08,21,24.10
2009,07,30,08,22,24.20
2009,07,30,08,23,24.20
2009,07,30,08,24,24.20
2009,07,30,08,25,24.30
2009,07,30,08,26,24.30
2009,07,30,08,27,24.30
2009,07,30,08,28,24.30
2009,07,30,08,29,24.30
2009,07,30,08,30,24.40
2009,07,30,08,31,24.40
2009,07,30,08,32,24.40
2009,07,30,08,33,24.40
2009,07,30,08,34,24.50
2009,07,30,08,35,24.50
2009,07,30,08,36,24.50
2009,07,30,08,37,24.50
2009,07,30,08,38,24.50
2009,07,30,08,39,24.60
2009,07,30,08,40,24.60
2009,07,30,08,41,24.60
2009,07,30,08,42,24.60
2009,07,30,08,43,24.60
2009,07,30,08,44,24.60
2009,07,30,08,45,24.60
2009,07,30,08,46,24.60
2009,07,30,08,47,24.70
2009,07,30,08,48,24.70
2009,07,30,08,49,24.70
2009,07,30,08,50,24.80
2009,07,30,08,51,24.80
2009,07,30,08,52,24.80
2009,07,30,08,53,24.80
2009,07,30,08,54,24.80
2009,07,30,08,55,24.80
2009,07,30,08,56,24.80
2009,07,30,08,57,24.80
2009,07,30,08,58,24.90
2009,07,30,08,59,24.90
2009,07,30,09,00,24.90
2009,07,30,09,01,24.90
2009,07,30,09,02,25.00
2009,07,30,09,03,25.00
2009,07,30,09,04,25.10
2009,07,30,09,05,25.10
2009,07,30,09,06,25.10
2009,07,30,09,07,25.20
2009,07,30,09,08,25.20
2009,07,30,09,09,25.20
2009,07,30,09,10,25.20
2009,07,30,09,11,25.30
2009,07,30,09,12,25.30
2009,07,30,09,13,25.30
2009,07,30,09,14,25.30
2009,07,30,09,15,25.40
2009,07,30,09,16,25.40
2009,07,30,09,17,25.40
2009,07,30,09,18,25.50
2009,07,30,09,19,25.50
2009,07,30,09,20,25.50
2009,07,30,09,21,25.50
2009,07,30,09,22,25.60
2009,07,30,09,23,25.60
2009,07,30,09,24,25.60
2009,07,30,09,25,25.70
2009,07,30,09,26,25.70
2009,07,30,09,27,25.80
2009,07,30,09,28,25.80
2009,07,30,09,29,25.90
2009,07,30,09,30,25.90
2009,07,30,09,31,25.90
2009,07,30,09,32,26.00
2009,07,30,09,33,26.10
2009,07,30,09,34,26.10
2009,07,30,09,35,26.20
2009,07,30,09,36,26.20
2009,07,30,09,37,26.30
2009,07,30,09,38,26.30
2009,07,30,09,39,26.40
2009,07,30,09,40,26.40
2009,07,30,09,41,26.40
2009,07,30,09,42,26.40
2009,07,30,09,43,26.40
2009,07,30,09,44,26.30
2009,07,30,09,45,26.30
2009,07,30,09,46,26.30
2009,07,30,09,47,26.20
2009,07,30,09,48,26.20
2009,07,30,09,49,26.20
2009,07,30,09,50,26.20
2009,07,30,09,51,26.20
2009,07,30,09,52,26.20
2009,07,30,09,53,26.20
2009,07,30,09,54,26.20
2009,07,30,09,55,26.20
2009,07,30,09,56,26.20
2009,07,30,09,57,26.30
2009,07,30,09,58,26.30
2009,07,30,09,59,26.30
2009,07,30,10,00,26.30
2009,07,30,10,01,26.30
2009,07,30,10,02,26.30
2009,07,30,10,03,26.20
2009,07,30,10,04,26.20
2009,07,30,10,05,26.10
2009,07,30,10,06,26.10
2009,07,30,10,07,26.10
2009,07,30,10,08,26.00
2009,07,30,10,09,26.00
2009,07,30,10,10,26.00
2009,07,30,10,11,26.00
2009,07,30,10,12,26.10
2009,07,30,10,13,26.10
2009,07,30,10,14,26.20
2009,07,30,10,15,26.20
2009,07,30,10,16,26.30
2009,07,30,10,17,26.30
2009,07,30,10,18,26.30
2009,07,30,10,19,26.40
2009,07,30,10,20,26.40
2009,07,30,10,21,26.40
2009,07,30,10,22,26.40
2009,07,30,10,23,26.40
2009,07,30,10,24,26.50
2009,07,30,10,25,26.60
2009,07,30,10,26,26.60
2009,07,30,10,27,26.60
2009,07,30,10,28,26.70
2009,07,30,10,29,26.70
2009,07,30,10,30,26.70
2009,07,30,10,31,26.80
2009,07,30,10,32,26.90
2009,07,30,10,33,26.90
2009,07,30,10,34,27.00
2009,07,30,10,35,27.10
2009,07,30,10,36,27.10
2009,07,30,10,37,27.10
2009,07,30,10,38,27.10
2009,07,30,10,39,27.10
2009,07,30,10,40,27.10
2009,07,30,10,41,27.00
2009,07,30,10,42,26.90
2009,07,30,10,43,26.80
2009,07,30,10,44,26.80
2009,07,30,10,45,26.80
2009,07,30,10,46,26.80
2009,07,30,10,47,26.80
2009,07,30,10,48,26.80
2009,07,30,10,49,26.70
2009,07,30,10,50,26.70
2009,07,30,10,51,26.80
2009,07,30,10,52,26.80
2009,07,30,10,53,26.80
2009,07,30,10,54,26.90
2009,07,30,10,55,26.90
2009,07,30,10,56,26.90
2009,07,30,10,57,27.00
2009,07,30,10,58,27.10
2009,07,30,10,59,27.10
2009,07,30,11,00,26.90
2009,07,30,11,01,26.90
2009,07,30,11,02,26.90
2009,07,30,11,03,27.00
2009,07,30,11,04,27.10
2009,07,30,11,05,27.10
2009,07,30,11,06,27.10
2009,07,30,11,07,27.10
2009,07,30,11,08,27.10
2009,07,30,11,09,27.10
2009,07,30,11,10,27.00
2009,07,30,11,11,26.90
2009,07,30,11,12,26.90
2009,07,30,11,13,26.90
2009,07,30,11,14,26.90
2009,07,30,11,15,26.90
2009,07,30,11,16,26.90
2009,07,30,11,17,27.00
2009,07,30,11,18,27.10
2009,07,30,11,19,27.20
2009,07,30,11,20,27.30
2009,07,30,11,21,27.30
2009,07,30,11,22,27.40
2009,07,30,11,23,27.60
2009,07,30,11,24,27.60
2009,07,30,11,25,27.70
2009,07,30,11,26,27.70
2009,07,30,11,27,27.80
2009,07,30,11,28,27.80
2009,07,30,11,29,27.80
2009,07,30,11,30,27.80
2009,07,30,11,31,27.60
2009,07,30,11,32,27.50
2009,07,30,11,33,27.40
2009,07,30,11,34,27.30
2009,07,30,11,35,27.30
2009,07,30,11,36,27.20
2009,07,30,11,37,27.10
2009,07,30,11,38,26.90
2009,07,30,11,39,26.90
2009,07,30,11,40,26.90
2009,07,30,11,41,27.10
2009,07,30,11,42,27.10
2009,07,30,11,43,27.10
2009,07,30,11,44,27.00
2009,07,30,11,45,26.90
2009,07,30,11,46,26.80
2009,07,30,11,47,26.80
2009,07,30,11,48,26.70
2009,07,30,11,49,26.70
2009,07,30,11,50,26.70
2009,07,30,11,51,26.70
2009,07,30,11,52,26.80
2009,07,30,11,53,26.80
2009,07,30,11,54,27.00
2009,07,30,11,55,27.10
2009,07,30,11,56,27.20
2009,07,30,11,57,27.30
2009,07,30,11,58,27.40
2009,07,30,11,59,27.50
2009,07,30,12,00,27.60
2009,07,30,12,01,27.60
2009,07,30,12,02,27.50
2009,07,30,12,03,27.40
2009,07,30,12,04,27.30
2009,07,30,12,05,27.30
2009,07,30,12,06,27.30
2009,07,30,12,07,27.30
2009,07,30,12,08,27.40
2009,07,30,12,09,27.50
2009,07,30,12,10,27.60
2009,07,30,12,11,27.70
2009,07,30,12,12,27.70
2009,07,30,12,13,27.70
2009,07,30,12,14,27.70
2009,07,30,12,15,27.70
2009,07,30,12,16,27.70
2009,07,30,12,17,27.70
2009,07,30,12,18,27.80
2009,07,30,12,19,27.90
2009,07,30,12,20,27.90
2009,07,30,12,21,28.00
2009,07,30,12,22,28.00
2009,07,30,12,23,28.00
2009,07,30,12,24,28.00
2009,07,30,12,25,27.90
2009,07,30,12,26,27.90
2009,07,30,12,27,27.90
2009,07,30,12,28,28.00
2009,07,30,12,29,28.00
2009,07,30,12,30,28.10
2009,07,30,12,31,28.20
2009,07,30,12,32,28.30
2009,07,30,12,33,28.30
2009,07,30,12,34,28.40
2009,07,30,12,35,28.50
2009,07,30,12,36,28.60
2009,07,30,12,37,28.60
2009,07,30,12,38,28.60
2009,07,30,12,39,28.60
2009,07,30,12,40,28.50
2009,07,30,12,41,28.40
2009,07,30,12,42,28.40
2009,07,30,12,43,28.30
2009,07,30,12,44,28.30
2009,07,30,12,45,28.30
2009,07,30,12,46,28.20
2009,07,30,12,47,28.20
2009,07,30,12,48,28.00
2009,07,30,12,49,28.00
2009,07,30,12,50,28.00
2009,07,30,12,51,28.00
2009,07,30,12,52,28.10
2009,07,30,12,53,28.20
2009,07,30,12,54,28.20
2009,07,30,12,55,28.30
2009,07,30,12,56,28.40
2009,07,30,12,57,28.50
2009,07,30,12,58,28.60
2009,07,30,12,59,28.60
2009,07,30,13,00,28.60
2009,07,30,13,01,28.60
2009,07,30,13,02,28.70
2009,07,30,13,03,28.70
2009,07,30,13,04,28.70
2009,07,30,13,05,28.70
2009,07,30,13,06,28.70
2009,07,30,13,07,28.80
2009,07,30,13,08,28.90
2009,07,30,13,09,28.90
2009,07,30,13,10,28.90
2009,07,30,13,11,28.90
2009,07,30,13,12,28.90
2009,07,30,13,13,28.90
2009,07,30,13,14,29.00
2009,07,30,13,15,29.10
2009,07,30,13,16,29.10
2009,07,30,13,17,29.20
2009,07,30,13,18,29.20
2009,07,30,13,19,29.30
2009,07,30,13,20,29.40
2009,07,30,13,21,29.40
2009,07,30,13,22,29.50
2009,07,30,13,23,29.50
2009,07,30,13,24,29.50
2009,07,30,13,25,29.40
2009,07,30,13,26,29.40
2009,07,30,13,27,29.40
2009,07,30,13,28,29.40
2009,07,30,13,29,29.40
2009,07,30,13,30,29.40
2009,07,30,13,31,29.40
2009,07,30,13,32,29.50
2009,07,30,13,33,29.50
2009,07,30,13,34,29.50
2009,07,30,13,35,29.50
2009,07,30,13,36,29.50
2009,07,30,13,37,29.60
2009,07,30,13,38,29.60
2009,07,30,13,39,29.60
2009,07,30,13,40,29.60
2009,07,30,13,41,29.60
2009,07,30,13,42,29.60
2009,07,30,13,43,29.60
2009,07,30,13,44,29.70
2009,07,30,13,45,29.70
2009,07,30,13,46,29.70
2009,07,30,13,47,29.80
2009,07,30,13,48,29.80
2009,07,30,13,49,29.90
2009,07,30,13,50,30.00
2009,07,30,13,51,30.10
2009,07,30,13,52,30.20
2009,07,30,13,53,30.30
2009,07,30,13,54,30.30
2009,07,30,13,55,30.30
2009,07,30,13,56,30.20
2009,07,30,13,57,30.20
2009,07,30,13,58,30.20
2009,07,30,13,59,30.30
2009,07,30,14,00,30.30
2009,07,30,14,01,30.40
2009,07,30,14,02,30.60
2009,07,30,14,03,30.70
2009,07,30,14,04,30.80
2009,07,30,14,05,30.80
2009,07,30,14,06,30.90
2009,07,30,14,07,31.10
2009,07,30,14,08,31.20
2009,07,30,14,09,31.30
2009,07,30,14,10,31.40
2009,07,30,14,11,31.60
2009,07,30,14,12,31.70
2009,07,30,14,13,31.80
2009,07,30,14,14,31.90
2009,07,30,14,15,32.00
2009,07,30,14,16,32.10
2009,07,30,14,17,32.10
2009,07,30,14,18,32.20
2009,07,30,14,19,32.30
2009,07,30,14,20,32.40
2009,07,30,14,21,32.50
2009,07,30,14,22,32.50
2009,07,30,14,23,32.60
2009,07,30,14,24,32.60
2009,07,30,14,25,32.60
2009,07,30,14,26,32.60
2009,07,30,14,27,32.70
2009,07,30,14,28,32.80
2009,07,30,14,29,32.80
2009,07,30,14,30,32.80
2009,07,30,14,31,32.80
2009,07,30,14,32,32.70
2009,07,30,14,33,32.60
2009,07,30,14,34,32.50
2009,07,30,14,35,32.50
2009,07,30,14,36,32.50
2009,07,30,14,37,32.60
2009,07,30,14,38,32.60
2009,07,30,14,39,32.70
2009,07,30,14,40,32.80
2009,07,30,14,41,32.80
2009,07,30,14,42,32.80
2009,07,30,14,43,32.80
2009,07,30,14,44,32.80
2009,07,30,14,45,32.80
2009,07,30,14,46,32.90
2009,07,30,14,47,33.00
2009,07,30,14,48,33.00
2009,07,30,14,49,33.00
2009,07,30,14,50,33.00
2009,07,30,14,51,33.00
2009,07,30,14,52,33.10
2009,07,30,14,53,33.10
2009,07,30,14,54,33.10
2009,07,30,14,55,33.00
2009,07,30,14,56,33.00
2009,07,30,14,57,32.90
2009,07,30,14,58,32.90
2009,07,30,14,59,32.70
2009,07,30,15,00,32.60
2009,07,30,15,01,32.60
2009,07,30,15,02,32.70
2009,07,30,15,03,32.80
2009,07,30,15,04,32.80
2009,07,30,15,05,32.90
2009,07,30,15,06,32.90
2009,07,30,15,07,32.80
2009,07,30,15,08,32.70
2009,07,30,15,09,32.60
2009,07,30,15,10,32.60
2009,07,30,15,11,32.50
2009,07,30,15,12,32.50
2009,07,30,15,13,32.50
2009,07,30,15,14,32.40
2009,07,30,15,15,32.40
2009,07,30,15,16,32.30
2009,07,30,15,17,32.30
2009,07,30,15,18,32.30
2009,07,30,15,19,32.30
2009,07,30,15,20,32.30
2009,07,30,15,21,32.20
2009,07,30,15,22,32.20
2009,07,30,15,23,32.20
2009,07,30,15,24,32.10
2009,07,30,15,25,32.10
2009,07,30,15,26,31.90
2009,07,30,15,27,31.90
2009,07,30,15,28,31.90
2009,07,30,15,29,31.90
2009,07,30,15,30,31.90
2009,07,30,15,31,31.90
2009,07,30,15,32,31.90
2009,07,30,15,33,31.90
2009,07,30,15,34,31.90
2009,07,30,15,35,31.90
2009,07,30,15,36,31.90
2009,07,30,15,37,32.10
2009,07,30,15,38,32.10
2009,07,30,15,39,32.20
2009,07,30,15,40,32.30
2009,07,30,15,41,32.30
2009,07,30,15,42,32.30
2009,07,30,15,43,32.30
2009,07,30,15,44,32.30
2009,07,30,15,45,32.30
2009,07,30,15,46,32.30
2009,07,30,15,47,32.30
2009,07,30,15,48,32.30
2009,07,30,15,49,32.40
2009,07,30,15,50,32.40
2009,07,30,15,51,32.50
2009,07,30,15,52,32.50
2009,07,30,15,53,32.60
2009,07,30,15,54,32.60
2009,07,30,15,55,32.60
2009,07,30,15,56,32.60
2009,07,30,15,57,32.60
2009,07,30,15,58,32.60
2009,07,30,15,59,32.60
2009,07,30,16,00,32.50
2009,07,30,16,01,32.40
2009,07,30,16,02,32.40
2009,07,30,16,03,32.40
2009,07,30,16,04,32.40
2009,07,30,16,05,32.40
2009,07,30,16,06,32.40
2009,07,30,16,07,32.50
2009,07,30,16,08,32.50
2009,07,30,16,09,32.50
2009,07,30,16,10,32.50
2009,07,30,16,11,32.50
2009,07,30,16,12,32.50
2009,07,30,16,13,32.60
2009,07,30,16,14,32.50
2009,07,30,16,15,32.40
2009,07,30,16,16,32.40
2009,07,30,16,17,32.30
2009,07,30,16,18,32.30
2009,07,30,16,19,32.30
2009,07,30,16,20,32.20
2009,07,30,16,21,32.20
2009,07,30,16,22,32.20
2009,07,30,16,23,32.20
2009,07,30,16,24,32.10
2009,07,30,16,25,32.00
2009,07,30,16,26,31.90
2009,07,30,16,27,31.90
2009,07,30,16,28,31.80
2009,07,30,16,29,31.80
2009,07,30,16,30,31.70
2009,07,30,16,31,31.60
2009,07,30,16,32,31.60
2009,07,30,16,33,31.60
2009,07,30,16,34,31.60
2009,07,30,16,35,31.60
2009,07,30,16,36,31.60
2009,07,30,16,37,31.70
2009,07,30,16,38,31.70
2009,07,30,16,39,31.70
2009,07,30,16,40,31.70
2009,07,30,16,41,31.70
2009,07,30,16,42,31.70
2009,07,30,16,43,31.70
2009,07,30,16,44,31.60
2009,07,30,16,45,31.60
2009,07,30,16,46,31.60
2009,07,30,16,47,31.70
2009,07,30,16,48,31.70
2009,07,30,16,49,31.70
2009,07,30,16,50,31.70
2009,07,30,16,51,31.70
2009,07,30,16,52,31.70
2009,07,30,16,53,31.70
2009,07,30,16,54,31.70
2009,07,30,16,55,31.70
2009,07,30,16,56,31.70
2009,07,30,16,57,31.60
2009,07,30,16,58,31.60
2009,07,30,16,59,31.60
2009,07,30,17,00,31.70
2009,07,30,17,01,31.70
2009,07,30,17,02,31.70
2009,07,30,17,03,31.70
2009,07,30,17,04,31.70
2009,07,30,17,05,31.70
2009,07,30,17,06,31.70
2009,07,30,17,07,31.70
2009,07,30,17,08,31.70
2009,07,30,17,09,31.70
2009,07,30,17,10,31.70
2009,07,30,17,11,31.70
2009,07,30,17,12,31.70
2009,07,30,17,13,31.70
2009,07,30,17,14,31.70
2009,07,30,17,15,31.70
2009,07,30,17,16,31.80
2009,07,30,17,17,31.80
2009,07,30,17,18,31.80
2009,07,30,17,19,31.90
2009,07,30,17,20,31.90
2009,07,30,17,21,32.00
2009,07,30,17,22,32.10
2009,07,30,17,23,32.10
2009,07,30,17,24,32.10